Toledo Metcalf, OH

12:05 AM EST on November 21, 2017 (GMT -0500)
Metcalf

Weather History for KTDZ - March, 2014

Change the Weather History Date:

Friday, March 21, 2014

  Actual Average (KTOL) Record (KTOL)
Temperature  
Mean Temperature 34 °F -  
Max Temperature 45 °F 47 °F 85 °F (2012)
Min Temperature 24 °F 28 °F 0 °F (1885)
Degree Days  
Heating Degree Days 31    
Moisture  
Dew Point 27 °F    
Average Humidity 75    
Maximum Humidity 82    
Minimum Humidity 60    
Precipitation  
Precipitation 0.00 in - - ()
Sea Level Pressure  
Sea Level Pressure 30.01 in    
Wind  
Wind Speed 5 mph (East)    
Max Wind Speed 14 mph    
Max Gust Speed -    
Visibility 9 miles    
Events      
Averages and records for this station are not official NWS values.
T = Trace of Precipitation, MM = Missing Value Source: NWS Daily Summary

Daily Weather History Graph

Daily Weather History Graph

Search for Another Location

Airport or City:

Trip Planner

Search our weather history database for the weather conditions in past years. The results will help you decide how hot, cold, wet, or windy it might be!

Date:

Astronomy

Mar. 21, 2014 Rise Set
Actual Time 7:35 AM EDT 7:47 PM EDT
Civil Twilight 7:07 AM EDT 8:14 PM EDT
Nautical Twilight 6:35 AM EDT 8:47 PM EDT
Astronomical Twilight 6:02 AM EDT 9:20 PM EDT
Moon 12:08 AM EDT 10:23 AM EDT
Length of Visible Light 13h 07m
Length of Day
12h 11m
Waning Gibbous, 75% of the Moon is Illuminated
Mar 21
Waning Gibbous
Mar 23
Last Quarter
Mar 30
New
Apr 7
First Quarter
Apr 15
Full

Hourly Weather History & Observations

Time (EDT) Temp. Windchill Dew Point Humidity Pressure Visibility Wind Dir Wind Speed Gust Speed Precip Events Conditions
12:53 AM 28.9 °F 25.2 °F 21.9 °F 75% 30.10 in 10.0 mi WNW 3.5 mph - N/A   Clear
1:53 AM 28.0 °F 24.2 °F 21.9 °F 78% 30.09 in 10.0 mi NNE 3.5 mph - N/A   Clear
2:53 AM 30.9 °F 27.5 °F 21.9 °F 69% 30.08 in 10.0 mi NNE 3.5 mph - N/A   Clear
3:53 AM 26.1 °F - 19.9 °F 78% 30.08 in 10.0 mi Calm Calm - N/A   Clear
4:53 AM 24.1 °F - 19.0 °F 81% 30.09 in 10.0 mi Calm Calm - N/A   Clear
5:53 AM 24.1 °F - 19.0 °F 81% 30.09 in 9.0 mi Calm Calm - N/A   Clear
6:53 AM 28.0 °F 24.2 °F 23.0 °F 81% 30.08 in 9.0 mi South 3.5 mph - N/A   Overcast
7:53 AM 30.0 °F 26.5 °F 24.1 °F 79% 30.10 in 9.0 mi WSW 3.5 mph - N/A   Overcast
8:53 AM 30.9 °F - 25.0 °F 79% 30.10 in 7.0 mi Calm Calm - 0.00 in   Overcast
9:53 AM 30.9 °F 26.2 °F 26.1 °F 82% 30.12 in 10.0 mi East 4.6 mph - N/A   Overcast
10:42 AM 33.1 °F 26.9 °F 27.0 °F 78% 30.10 in 8.0 mi SSE 6.9 mph - N/A   Mostly Cloudy
10:51 AM 33.8 °F 27.0 °F 26.6 °F 75% 30.09 in 9.0 mi SE 8.1 mph - N/A   Mostly Cloudy
10:53 AM 34.0 °F 28.0 °F 27.0 °F 75% 30.12 in 9.0 mi SE 6.9 mph - N/A   Mostly Cloudy
11:11 AM 35.1 °F 28.6 °F 26.1 °F 70% 30.09 in 10.0 mi SSE 8.1 mph - N/A   Mostly Cloudy
11:19 AM 35.1 °F 29.3 °F 26.1 °F 70% 30.08 in 10.0 mi SSE 6.9 mph - N/A   Mostly Cloudy
11:32 AM 36.0 °F 29.0 °F 27.0 °F 70% 30.08 in 10.0 mi SE 9.2 mph - N/A   Scattered Clouds
11:53 AM 36.0 °F 30.3 °F 27.0 °F 70% 30.09 in 10.0 mi SE 6.9 mph - N/A   Scattered Clouds
12:53 PM 39.0 °F 33.4 °F 28.0 °F 65% 30.07 in 10.0 mi ESE 8.1 mph - N/A   Partly Cloudy
1:53 PM 41.0 °F 36.4 °F 28.9 °F 62% 30.04 in 10.0 mi East 6.9 mph - N/A   Clear
2:53 PM 44.1 °F 38.6 °F 30.9 °F 60% 30.01 in 10.0 mi ENE 10.4 mph - N/A   Clear
3:53 PM 42.1 °F 34.9 °F 32.0 °F 67% 29.99 in 9.0 mi ENE 13.8 mph - N/A   Mostly Cloudy
4:10 PM 41.0 °F 33.5 °F 32.0 °F 70% 29.96 in 9.0 mi NE 13.8 mph - N/A   Scattered Clouds
4:53 PM 41.0 °F 35.2 °F 32.0 °F 70% 29.96 in 9.0 mi ENE 9.2 mph - N/A   Clear
5:53 PM 41.0 °F 34.3 °F 32.0 °F 70% 29.94 in 8.0 mi NE 11.5 mph - N/A   Clear
6:53 PM 37.0 °F 29.3 °F 30.0 °F 76% 29.90 in 7.0 mi ENE 11.5 mph - N/A   Clear
7:53 PM 35.1 °F 28.6 °F 28.9 °F 78% 29.87 in 7.0 mi ENE 8.1 mph - N/A   Clear
8:53 PM 34.0 °F 28.0 °F 28.9 °F 82% 29.84 in 7.0 mi East 6.9 mph - N/A   Clear
9:53 PM 34.0 °F 27.2 °F 28.9 °F 82% 29.80 in 9.0 mi ENE 8.1 mph - N/A   Mostly Cloudy
10:53 PM 35.1 °F 31.0 °F 30.0 °F 82% 29.74 in 8.0 mi East 4.6 mph - N/A   Scattered Clouds
11:53 PM 36.0 °F - 30.9 °F 82% 29.71 in 6.0 mi Calm Calm - N/A   Haze